[sarex] 2 Line ISS Keps 9-24

Dave Larsen PhD doc at volcano.net
Sat Sep 23 21:07:06 PDT 2006


ISS
1 25544U 98067A   06266.97835648  .00015204  00000-0  99058-4 0  7298
2 25544 051.6361 038.5538 0012032 019.6945 124.9648 15.76066279448748


More information about the SAREX mailing list